[[{"header":{"parameterUnit":"m.s-1","parameterCategory":1,"la1":30.2991,"la2":30.254,"lo1":-89.0895,"lo2":-89.0444,"dy":0.0017,"dx":0.0017,"nx":28,"ny":28,"refTime":"2025-04-17T09:00:00:Z","depth":0,"parameterNumber":2,"parameterNumberName":"U-component_of_WINDS"},"data":[0,0,0,0,0,0,0,0,0,0,0,0,0,0,0,0,0,0,0,0,0,0,0,0,0,0,0,0,0,0,0,0,0,0,0,0,0,0,0,0,0,0,0,0,0,0,0,0,0,0,0,0,0,0,0,0,0,0,-1.6137,-1.6137,0,-1.6175,-1.6176,-1.6176,-1.6176,-1.6175,-1.6175,-1.6174,-1.6213,-1.6214,-1.6216,0,0,0,0,0,0,0,0,0,0,0,0,0,-1.6062,-1.6063,-1.6137,-1.6137,-1.6138,-1.6175,-1.6176,-1.6176,-1.6176,-1.6175,-1.6175,-1.6174,-1.6212,-1.6214,-1.6216,0,0,0,0,0,0,0,0,0,0,0,0,0,-1.6097,-1.6064,-1.6137,-1.6142,-1.6143,-1.6175,-1.6176,-1.6176,-1.6176,-1.6175,-1.6175,-1.6174,-1.6212,-1.6214,-1.6216,-1.6245,0,0,-1.6223,-1.6224,0,0,0,0,0,0,0,0,-1.6095,-1.61,-1.6141,-1.6142,-1.6143,-1.617,-1.6164,-1.6199,-1.6176,-1.6163,-1.6174,-1.6174,-1.6199,-1.6202,-1.6211,-1.6247,-1.6248,-1.6223,-1.6224,-1.6225,-1.6226,0,0,0,0,0,0,0,-1.6093,-1.6098,-1.6152,-1.6141,-1.6143,-1.6142,-1.6147,-1.617,-1.6185,-1.6165,-1.6165,-1.6169,-1.6199,-1.6209,-1.6212,-1.6249,-1.6223,-1.6225,-1.6226,-1.6227,-1.6311,-1.6311,0,0,0,0,0,0,-1.6089,-1.6096,-1.6151,-1.6153,-1.6117,-1.6144,-1.6149,-1.6162,-1.6185,-1.6187,-1.617,-1.6169,-1.6205,-1.6209,-1.6213,-1.6249,-1.6225,-1.6227,-1.6229,-1.631,-1.6311,-1.6312,0,0,0,0,0,0,-1.6088,-1.6094,-1.6149,-1.6125,-1.6132,-1.6146,-1.6161,-1.6163,-1.6173,-1.6189,-1.6191,-1.6177,-1.6205,-1.621,-1.6237,-1.625,-1.6228,-1.623,-1.6309,-1.631,-1.6311,-1.632,0,0,0,0,0,0,-1.6085,-1.6093,-1.6105,-1.6125,-1.6133,-1.6173,-1.6162,-1.6165,-1.6177,-1.6176,-1.6196,-1.6199,-1.6205,-1.6234,-1.6239,-1.6253,-1.6232,-1.6308,-1.6309,-1.6311,-1.6318,-1.6321,-1.6324,0,0,0,0,0,-1.6083,-1.6105,-1.6105,-1.6112,-1.6147,-1.6173,-1.6178,-1.6185,-1.6178,-1.6189,-1.62,-1.6198,-1.6248,-1.6237,-1.6243,-1.6257,-1.6307,-1.6309,-1.6311,-1.6317,-1.6321,-1.6324,0,0,0,0,0,0,-1.6085,-1.6108,-1.6108,-1.6138,-1.6154,-1.6173,-1.6188,-1.6188,-1.6206,-1.6205,-1.6213,-1.6217,-1.6244,-1.6253,-1.624,-1.6287,-1.6276,-1.628,-1.6279,-1.6283,-1.6285,-1.6282,-1.6234,0,0,0,0,0,-1.6089,-1.6109,-1.6128,-1.6152,-1.616,-1.6173,-1.6184,-1.6188,-1.6205,-1.6211,-1.6224,-1.624,-1.6259,-1.6272,-1.629,-1.632,-1.6324,-1.6333,-1.6336,-1.6338,-1.634,-1.6357,-1.6361,-1.6318,-1.6318,-1.6318,0,0,-1.6098,-1.6113,-1.6124,-1.6153,-1.6166,-1.6186,-1.6178,-1.6199,-1.6214,-1.6215,-1.6241,-1.6251,-1.6269,-1.6298,-1.6311,-1.6306,-1.6353,-1.634,-1.6342,-1.6343,-1.636,-1.6364,-1.6367,-1.632,-1.6319,-1.6319,0,0,-1.6123,-1.6136,-1.6158,-1.6172,-1.6192,-1.62,-1.6205,-1.6225,-1.6232,-1.6259,-1.626,-1.6277,-1.631,-1.6323,-1.6334,-1.6366,-1.6365,-1.6372,-1.6385,-1.6402,-1.6405,-1.6408,-1.6419,-1.6423,-1.6375,-1.6375,-1.6375,0,-1.6131,-1.6161,-1.6169,-1.6191,-1.6203,-1.6206,-1.6228,-1.624,-1.6265,-1.6274,-1.6268,-1.6311,-1.6323,-1.6355,-1.6363,-1.6372,-1.6378,-1.6369,-1.6404,-1.6407,-1.641,-1.6421,-1.6425,-1.6375,-1.6375,-1.6375,-1.6375,0,-1.617,-1.6191,-1.6206,-1.6231,-1.6245,-1.6267,-1.6278,-1.6292,-1.6295,-1.6304,-1.6332,-1.6347,-1.6369,-1.6377,-1.638,-1.641,-1.6406,-1.6402,-1.6392,-1.6415,-1.6425,-1.6429,-1.6376,-1.6376,-1.6376,-1.6376,0,0,-1.6196,-1.6226,-1.6232,-1.6243,-1.6266,-1.6282,-1.6304,-1.6326,-1.6338,-1.6355,-1.6374,-1.6402,-1.6399,-1.6412,-1.6417,-1.6431,-1.6455,-1.6426,-1.6426,-1.643,-1.6488,-1.6491,-1.6495,-1.6455,-1.6456,-1.6457,-1.6487,0,-1.6224,-1.6263,-1.6272,-1.6306,-1.6326,-1.6329,-1.6348,-1.6364,-1.6373,-1.6391,-1.6401,-1.6422,-1.6416,-1.6424,-1.6438,-1.6449,-1.6467,-1.6447,-1.6472,-1.6473,-1.6467,-1.6501,-1.6503,-1.653,-1.6491,-1.6492,-1.6492,0,-1.6261,-1.628,-1.6316,-1.6337,-1.6345,-1.6363,-1.6384,-1.6401,-1.6419,-1.6425,-1.644,-1.6443,-1.6466,-1.6456,-1.6488,-1.6474,-1.6485,-1.6492,-1.6493,-1.6495,-1.6483,-1.6503,-1.6539,-1.6543,-1.6498,-1.6498,-1.6497,0,-1.6276,-1.6311,-1.6337,-1.6347,-1.6372,-1.6384,-1.6395,-1.6413,-1.6426,-1.6444,-1.6453,-1.6474,-1.6485,-1.6501,-1.651,-1.6502,-1.6541,-1.6532,-1.6546,-1.6546,-1.6554,-1.6553,-1.6592,-1.6562,-1.6562,-1.6562,-1.6562,0,-1.6306,-1.6328,-1.6345,-1.6361,-1.6385,-1.6395,-1.6419,-1.643,-1.6446,-1.6464,-1.6468,-1.6485,-1.6497,-1.6515,-1.6522,-1.6548,-1.6553,-1.6558,-1.6559,-1.6557,-1.6556,-1.6564,-1.6562,-1.6563,-1.6563,-1.6562,-1.6562,0,-1.6327,-1.6339,-1.6368,-1.639,-1.6396,-1.6413,-1.6431,-1.6447,-1.6457,-1.648,-1.6486,-1.6501,-1.6523,-1.6534,-1.6561,-1.6566,-1.6595,-1.6595,-1.6588,-1.6589,-1.6603,-1.6601,-1.6647,-1.6654,-1.662,-1.662,-1.6621,0,-1.6344,-1.6361,-1.6385,-1.6398,-1.6409,-1.643,-1.6443,-1.6454,-1.6468,-1.6491,-1.6504,-1.6526,-1.6544,-1.6579,-1.6593,-1.6614,-1.6615,-1.6629,-1.6618,-1.6615,-1.6614,-1.6613,-1.6615,-1.6631,-1.6631,-1.6632,-1.6632,0,-1.6374,-1.638,-1.6399,-1.6421,-1.6438,-1.6455,-1.6473,-1.6483,-1.6496,-1.6512,-1.6535,-1.6549,-1.6578,-1.66,-1.6622,-1.6633,-1.6634,-1.6636,-1.664,-1.6637,-1.6633,-1.6635,-1.6593,-1.6634,-1.6634,-1.6634,-1.6634,-1.6634,-1.6394,-1.6409,-1.6429,-1.645,-1.6465,-1.6481,-1.6497,-1.651,-1.6529,-1.6553,-1.6559,-1.6583,-1.6601,-1.6631,-1.6643,-1.6662,-1.6659,-1.6665,-1.6667,-1.6668,-1.6669,-1.663,-1.6666,-1.6666,-1.6666,-1.6666,-1.6666,0,-1.6424,-1.6436,-1.6457,-1.6481,-1.6498,-1.65,-1.6519,-1.6533,-1.6555,-1.6572,-1.6591,-1.6617,-1.6639,-1.6655,-1.6677,-1.6689,-1.669,-1.6694,-1.6693,-1.6696,-1.667,-1.6664,-1.6693,-1.6693,-1.6693,-1.6693,-1.6693,-1.6693,-1.6441,-1.6467,-1.6475,-1.6509,-1.6522,-1.6546,-1.6557,-1.6572,-1.6586,-1.6616,-1.6634,-1.6644,-1.6661,-1.6684,-1.6704,-1.6708,-1.6716,-1.672,-1.6724,-1.67,-1.6697,-1.6694,-1.6689,-1.6722,-1.6722,-1.6747,-1.6748,-1.6748]},{"header":{"parameterUnit":"m.s-1","parameterCategory":1,"la1":30.2991,"la2":30.254,"lo1":-89.0895,"lo2":-89.0444,"dy":0.0017,"dx":0.0017,"nx":28,"ny":28,"refTime":"2025-04-17T09:00:00:Z","depth":0,"parameterNumber":3,"parameterNumberName":"V-component_of_WINDS"},"data":[0,0,0,0,0,0,0,0,0,0,0,0,0,0,0,0,0,0,0,0,0,0,0,0,0,0,0,0,0,0,0,0,0,0,0,0,0,0,0,0,0,0,0,0,0,0,0,0,0,0,0,0,0,0,0,0,0,0,1.0038,1.0036,0,0.9894,0.9892,0.989,0.9735,0.9733,0.9731,0.9729,0.9579,0.9577,0.9575,0,0,0,0,0,0,0,0,0,0,0,0,0,1.0177,1.0175,1.0038,1.0036,1.0034,0.9894,0.9892,0.989,0.9736,0.9733,0.973,0.9728,0.9579,0.9577,0.9575,0,0,0,0,0,0,0,0,0,0,0,0,0,1.0083,1.0175,1.0038,0.9941,0.993,0.9894,0.9892,0.9889,0.9736,0.9733,0.973,0.9727,0.958,0.9577,0.9574,0.9622,0,0,0.9565,0.9564,0,0,0,0,0,0,0,0,1.0089,1.0078,0.9957,0.9947,0.9936,0.9829,0.9886,0.98,0.9737,0.981,0.9729,0.9725,0.9664,0.9654,0.9634,0.9615,0.9608,0.9565,0.9563,0.9562,0.9561,0,0,0,0,0,0,0,1.0096,1.0084,0.9981,0.9955,0.9942,0.9903,0.9886,0.9869,0.9757,0.9803,0.9792,0.9777,0.9658,0.9638,0.963,0.9606,0.9565,0.9562,0.9561,0.9559,0.9617,0.962,0,0,0,0,0,0,1.0117,1.009,0.9985,0.9976,1.0006,0.9903,0.9884,0.9867,0.9757,0.9737,0.978,0.977,0.9644,0.9633,0.9624,0.9671,0.9562,0.9559,0.9558,0.9614,0.9618,0.9622,0,0,0,0,0,0,1.0121,1.0109,0.9991,1.003,1.0012,0.9904,0.9886,0.9866,0.9845,0.9739,0.9718,0.978,0.9641,0.9628,0.9623,0.9664,0.9558,0.9555,0.961,0.9615,0.962,0.9769,0,0,0,0,0,0,1.0125,1.0112,1.0129,1.0032,1.0011,0.9995,0.9888,0.9865,0.9841,0.9827,0.9734,0.9715,0.9638,0.9629,0.9621,0.9658,0.9553,0.9606,0.9612,0.9618,0.9759,0.9778,0.9794,0,0,0,0,0,1.0131,1.0176,1.0131,1.0119,1.0031,0.9997,0.9985,0.9896,0.9845,0.9861,0.9793,0.9718,0.9662,0.963,0.9619,0.9657,0.9603,0.9611,0.9618,0.9752,0.9774,0.9793,0,0,0,0,0,0,1.0281,1.0162,1.011,1.0126,1.0073,0.9971,0.9989,0.9923,0.9882,0.9871,0.9761,0.9741,0.975,0.9702,0.9669,0.9696,0.9621,0.9627,0.9727,0.9747,0.9764,0.9775,0.955,0,0,0,0,0,1.0316,1.03,1.0196,1.022,1.0196,1.0098,1.008,1.0016,0.9956,0.9933,0.9864,0.9809,0.9778,0.976,0.9726,0.9752,0.9729,0.9773,0.979,0.9804,0.981,0.982,0.9837,0.9646,0.9646,0.9646,0,0,1.0388,1.0321,1.0317,1.0248,1.02,1.0184,1.008,1.0068,1.0055,0.993,0.9922,0.987,0.9801,0.9812,0.9813,0.9773,0.9858,0.9814,0.9826,0.9824,0.9829,0.9847,0.9864,0.9651,0.965,0.9649,0,0,1.051,1.0459,1.0472,1.0426,1.0354,1.0288,1.0292,1.0201,1.0162,1.0152,1.0058,1.004,0.999,0.9944,0.9915,1.0021,0.995,1.0013,1.0102,1.0112,1.0127,1.014,1.0177,1.0192,1.0019,1.002,1.002,0,1.0608,1.0582,1.0487,1.0481,1.0453,1.0341,1.0353,1.0313,1.0234,1.0217,1.0173,1.0107,1.0053,1.0051,1.0077,1.0057,1.0057,1.0022,1.0133,1.0145,1.0155,1.0189,1.0204,1.0028,1.0027,1.0026,1.0025,0,1.0705,1.0689,1.0708,1.0636,1.061,1.0613,1.0518,1.0504,1.0442,1.0381,1.0372,1.0303,1.0252,1.0247,1.0187,1.0237,1.0214,1.0154,1.0076,1.0183,1.0213,1.0226,1.0039,1.0036,1.0034,1.0032,0,0,1.0917,1.0793,1.0801,1.0767,1.068,1.0664,1.0663,1.0614,1.0603,1.0553,1.0548,1.0508,1.0451,1.0418,1.0351,1.0361,1.0448,1.0298,1.0295,1.0328,1.0498,1.0543,1.056,1.0401,1.0403,1.0405,1.0503,0,1.1024,1.1014,1.0929,1.0943,1.0926,1.082,1.0818,1.0764,1.0707,1.0683,1.0619,1.0593,1.0521,1.0499,1.0504,1.0437,1.048,1.0428,1.0394,1.0394,1.0414,1.0576,1.0623,1.072,1.0514,1.0516,1.0518,0,1.1146,1.1104,1.1117,1.103,1.1019,1.1019,1.0968,1.0947,1.0884,1.0841,1.0805,1.073,1.072,1.0649,1.0634,1.06,1.0581,1.0546,1.0547,1.054,1.0462,1.0571,1.0748,1.0763,1.0535,1.0534,1.0533,0,1.1298,1.1245,1.1245,1.1219,1.1117,1.112,1.1077,1.101,1.0987,1.0942,1.0925,1.088,1.0855,1.0821,1.0736,1.0692,1.0731,1.0652,1.0694,1.0696,1.0706,1.0706,1.0882,1.0696,1.0696,1.0696,1.0695,0,1.1425,1.1437,1.1312,1.1313,1.1323,1.1225,1.1237,1.1184,1.1126,1.1113,1.1018,1.1008,1.0896,1.0873,1.0806,1.0804,1.0793,1.0758,1.074,1.0766,1.0771,1.0751,1.0742,1.0699,1.0699,1.0698,1.0697,0,1.1596,1.1513,1.1507,1.1411,1.1388,1.1399,1.1317,1.1313,1.125,1.1236,1.1227,1.1128,1.1097,1.1008,1.0954,1.0908,1.0924,1.0891,1.0947,1.0935,1.0982,1.0978,1.115,1.1167,1.0973,1.0975,1.0976,0,1.1682,1.1689,1.1595,1.158,1.1542,1.152,1.1495,1.1399,1.1377,1.1306,1.131,1.1271,1.1234,1.1189,1.1112,1.1069,1.1033,1.1096,1.1026,1.1052,1.1033,1.1033,1.1033,1.1112,1.1114,1.1116,1.1118,0,1.1843,1.1802,1.1771,1.1726,1.17,1.166,1.1614,1.1607,1.1499,1.148,1.1447,1.1419,1.1363,1.1325,1.1271,1.1225,1.1154,1.1141,1.1148,1.1174,1.1206,1.1188,1.0987,1.1137,1.1135,1.1134,1.1133,1.1132,1.1972,1.1973,1.1908,1.1876,1.1832,1.1792,1.1783,1.172,1.1691,1.1639,1.1584,1.1557,1.1493,1.1412,1.1373,1.1349,1.1311,1.1322,1.1325,1.1329,1.134,1.1211,1.1339,1.1338,1.1338,1.1337,1.1337,0,1.2127,1.208,1.2053,1.1992,1.1968,1.1904,1.185,1.1833,1.1811,1.1757,1.1724,1.1686,1.1649,1.1569,1.1525,1.1521,1.1487,1.1513,1.1511,1.1502,1.1377,1.1375,1.1541,1.1541,1.1541,1.1541,1.1541,1.1541,1.2205,1.2203,1.2154,1.2129,1.2081,1.2055,1.2029,1.1991,1.1948,1.191,1.1879,1.1828,1.1764,1.1714,1.1677,1.1654,1.1642,1.1678,1.1645,1.153,1.1511,1.1492,1.1489,1.1677,1.1677,1.1771,1.1772,1.1773]}]]